This is the latest recevied weather packets stored in our database for station/object KJ4YLO. If no packets are shown the sender has not sent any weather packets the latest 10 day(s).
| Time | Temp. | Humidity | Pressure | Rain* | Wind** | Luminosity | Snow |
|---|---|---|---|---|---|---|---|
| 1777936899 | 21.67° C | 44% | 1015.5 hPa | 0 mm | - | 29 W/m² | - |
| 1777936596 | 21.67° C | 43% | 1015.5 hPa | 0 mm | - | 32 W/m² | - |
| 1777936292 | 22.22° C | 42% | 1015.5 hPa | 0 mm | - | 38 W/m² | - |
| 1777935988 | 22.22° C | 41% | 1015.5 hPa | 0 mm | - | 39 W/m² | - |
| 1777935687 | 22.78° C | 39% | 1015.5 hPa | 0 mm | - | 42 W/m² | - |
| 1777935385 | 22.78° C | 38% | 1015.1 hPa | 0 mm | - | 46 W/m² | - |
| 1777935081 | 22.78° C | 40% | 1015.5 hPa | 0 mm | - | 53 W/m² | - |
| 1777934778 | 22.78° C | 36% | 1015.1 hPa | 0 mm | - | 54 W/m² | - |
| 1777934475 | 22.78° C | 39% | 1015.1 hPa | 0 mm | - | 69 W/m² | - |
| 1777934172 | 22.78° C | 36% | 1015.5 hPa | 0 mm | - | 72 W/m² | - |
| 1777933868 | 23.33° C | 40% | 1015.5 hPa | 0 mm | - | 81 W/m² | - |
| 1777933565 | 23.33° C | 38% | 1015.9 hPa | 0 mm | - | 89 W/m² | - |
| 1777933262 | 23.89° C | 37% | 1015.5 hPa | 0 mm | - | 98 W/m² | - |
| 1777932959 | 23.89° C | 39% | 1015.5 hPa | 0 mm | - | 192 W/m² | - |
| 1777932655 | 23.89° C | 39% | 1015.5 hPa | 0 mm | - | 180 W/m² | - |
| 1777932352 | 23.89° C | 37% | 1015.1 hPa | 0 mm | - | 150 W/m² | - |
| 1777932049 | 24.44° C | 33% | 1015.5 hPa | 0 mm | - | 138 W/m² | - |
| 1777931746 | 25° C | 35% | 1015.5 hPa | 0 mm | - | 203 W/m² | - |
| 1777931443 | 25° C | 35% | 1015.5 hPa | 0 mm | - | 288 W/m² | - |
| 1777931139 | 24.44° C | 35% | 1015.5 hPa | 0 mm | - | 251 W/m² | - |
| 1777930836 | 25° C | 35% | 1015.5 hPa | 0 mm | - | 209 W/m² | - |
| 1777930532 | 24.44° C | 35% | 1015.5 hPa | 0 mm | - | 232 W/m² | - |
| 1777930229 | 24.44° C | 36% | 1015.5 hPa | 0 mm | - | 223 W/m² | - |
| 1777929925 | 25° C | 36% | 1015.5 hPa | 0 mm | - | 209 W/m² | - |
| 1777929623 | 24.44° C | 35% | 1015.5 hPa | 0 mm | - | 253 W/m² | - |
* Rain latest hour (hover to see other rain measurements)
** Current wind speed in m/s (hover to see current wind gust speed)